Lid_Strength_Index
-0 -0 0 3 10 11 14 11 6 7 7 5 5 6 7 6 8 12 2 1 0 0 -0 -1 -2 -1 -2 -2 -2 -1 -1 -1 -1 -1 -1 -1 -1 -1 -1 -2 -2 -1 -1 -1 -1 -1 -1 -1 -1
2 2 4 6 12 15 13 8 8 7 6 5 5 5 6 7 4 4 3 1 0 -0 -0 -0 -2 -2 -2 -2 -1 -2 -2 -1 -1 -2 -1 -2 -2 -1 -1 -2 -2 -1 -1 -1 -1 -1 -2 -2 -2
2 2 7 9 12 15 12 8 7 6 6 5 5 4 5 6 3 3 1 0 0 0 -0 -0 -2 -2 -2 -2 -2 -2 -2 -2 -2 -2 -1 -1 -1 -2 -2 -2 -2 -1 -1 -1 -1 -2 -1 -1 -1
6 8 7 10 12 10 10 7 6 6 5 4 5 7 4 2 3 2 0 0 0 0 -0 -1 -2 -2 -2 -2 -2 -2 -2 -1 -1 -1 -1 -1 -1 -1 -2 -2 -2 -2 -1 -1 -1 -2 -2 -1 -1
7 9 10 11 10 9 7 6 6 7 6 6 5 7 6 3 2 1 1 0 1 0 -0 -0 -2 -2 -2 -2 -2 -2 -1 -2 -2 -1 -1 -1 -2 -2 -2 -2 -2 -2 -1 -1 -1 -2 -2 -2 -2
9 10 12 14 11 9 7 6 7 6 6 5 6 6 6 3 2 2 1 1 0 0 -0 -0 -2 -2 -2 -2 -2 -2 -2 -2 -2 -2 -2 -2 -2 -2 -2 -2 -2 -2 -2 -2 -1 -2 -2 -2 -2
11 13 13 11 11 10 8 5 8 7 6 6 4 7 5 4 2 2 1 0 0 -0 0 -0 -0 -1 -2 -2 -2 -2 -2 -2 -2 -2 -2 -2 -2 -2 -2 -2 -2 -2 -2 -2 -2 -2 -2 -2 -2
9 11 13 10 11 11 7 7 7 6 6 3 3 7 7 3 2 1 1 1 1 0 0 0 1 0 0 -0 -2 -2 -2 -2 -2 -2 -1 -1 -2 -2 -2 -2 -2 -2 -2 -2 -2 -2 -2 -2 -2
9 13 12 9 9 9 6 9 7 5 5 4 4 4 3 2 2 3 2 2 1 1 1 0 0 1 1 0 -1 -2 -2 -2 -2 -1 -1 -1 0 1 -0 -1 -2 -2 -2 -2 -2 -2 -2 -2 -2
11 13 11 7 7 8 7 6 8 6 5 5 5 3 2 2 4 4 4 3 2 2 1 0 0 0 0 -1 0 0 -0 -0 0 1 1 1 1 0 -1 -1 -2 -2 -2 -2 -2 -2 -4 -3 1
10 11 9 6 6 6 6 6 6 6 7 5 6 4 3 3 4 4 4 3 3 2 1 1 1 0 1 0 0 1 2 2 1 1 1 0 -1 0 -0 -0 -0 -0 -2 -0 -1 0 1 2 2
11 9 8 7 5 6 6 5 7 6 6 4 3 3 3 4 4 4 4 4 3 2 2 1 1 1 1 1 2 1 1 2 1 0 0 0 0 0 2 2 4 5 2 2 1 2 2 2 2
11 9 7 7 6 6 5 6 6 7 5 3 3 3 4 4 4 4 3 3 3 3 2 1 1 1 0 2 2 1 1 0 0 -0 0 -0 0 1 3 4 4 2 1 2 2 1 2 2 3
8 7 8 8 7 6 6 6 6 6 5 5 4 4 4 4 4 4 4 3 3 3 3 1 1 0 0 0 0 0 0 1 0 -0 -0 0 1 3 4 4 2 2 2 1 1 1 1 2 2
7 9 8 8 7 7 6 8 7 6 6 6 6 4 4 4 4 4 3 4 3 2 2 1 1 0 1 1 1 0 0 -0 0 0 1 2 2 3 5 3 2 2 1 1 1 1 1 1 1
9 10 11 8 7 6 7 11 6 6 7 7 7 6 4 4 4 4 3 2 2 2 2 1 0 0 1 1 0 0 0 0 0 0 1 2 3 3 4 2 2 1 0 0 1 1 2 1 2
10 12 11 9 7 6 8 10 7 5 5 7 7 6 4 4 4 4 3 2 2 1 1 2 1 1 1 0 0 0 0 0 0 1 2 2 2 2 2 2 1 0 0 0 0 1 1 2 3
12 11 11 11 8 7 8 9 7 5 6 6 7 6 6 6 5 3 3 2 2 1 1 1 1 1 1 0 0 1 0 1 2 3 4 3 3 1 1 1 1 1 0 0 1 1 1 1 3
10 11 11 9 7 8 9 8 7 6 6 7 6 7 6 6 5 4 3 2 2 1 2 1 2 1 1 1 2 2 2 2 3 4 4 4 2 1 2 1 1 0 1 1 1 1 2 2 2
9 11 11 9 7 9 9 9 7 6 7 5 6 5 6 6 5 4 4 2 2 2 2 2 1 1 1 1 2 2 2 3 4 4 4 3 2 1 2 1 1 1 1 1 1 1 2 3 2
11 11 11 11 9 8 9 11 9 7 6 6 5 5 5 6 5 4 4 3 2 2 2 2 1 1 1 1 2 3 3 4 5 6 5 3 2 1 1 1 1 1 1 2 1 1 2 3 4
12 8 8 10 12 12 8 15 11 8 7 6 6 7 5 5 4 4 3 3 3 2 1 1 1 1 1 2 3 3 4 5 6 6 4 3 2 1 1 1 0 1 1 1 1 1 2 3 5
10 8 9 9 13 14 12 13 11 10 10 9 8 8 6 4 4 4 3 3 2 2 2 1 1 1 1 2 2 3 4 6 6 6 4 3 2 1 0 1 1 1 1 1 1 2 3 4 4
7 9 9 11 13 16 13 13 14 12 10 9 7 7 6 6 4 3 3 2 2 2 2 2 2 2 1 2 3 3 6 7 7 6 4 3 2 2 0 0 1 1 1 1 1 2 3 4 4
9 11 15 15 16 15 11 13 13 10 8 8 7 7 6 6 6 4 4 3 3 3 4 5 6 3 2 2 3 4 6 6 7 4 4 3 3 2 1 1 1 2 2 1 1 3 3 4 4
11 12 15 17 16 14 11 13 10 8 7 7 6 6 6 6 4 5 4 4 4 5 4 4 3 2 2 2 3 5 5 5 4 3 3 2 2 2 1 1 1 1 1 1 2 3 4 5 6
11 13 10 13 13 14 13 11 9 7 6 6 7 6 6 6 5 5 4 4 3 4 5 4 4 2 2 2 3 5 5 5 4 3 2 2 2 2 1 1 1 1 2 2 3 4 5 5 5
9 9 13 13 17 17 14 13 12 10 8 7 7 8 7 5 5 5 4 4 3 5 5 5 4 2 2 2 3 4 4 2 3 2 1 2 2 1 1 1 1 2 2 3 4 4 5 5 6
10 12 11 12 12 16 17 14 10 9 7 7 8 7 7 6 5 5 4 4 3 4 4 4 2 2 2 3 3 4 3 2 3 2 1 2 1 1 1 1 2 3 4 4 5 6 6 6 6
8 10 10 14 14 13 14 13 8 8 7 7 7 5 5 6 5 4 4 4 4 5 4 4 2 2 3 3 4 3 2 1 2 2 1 1 1 1 2 1 2 3 4 5 5 6 5 5 7